Wind_Speed
20 15 13 7 7 7 7 6 4 6 0 8 9 9 9 10 15 15 13 14 10 11 15 14 11 9 15 17 13 10 10 13 13 9 14 16 20 18 17 22 22 19 17
21 21 15 14 13 12 8 7 5 7 8 6 9 13 15 15 12 15 12 10 10 12 12 10 11 16 12 11 11 13 14 13 14 14 12 12 15 18 19 18 21 19 18
25 19 21 11 17 13 8 12 6 10 13 10 10 10 13 16 16 15 13 12 16 10 9 9 10 9 11 11 13 16 17 13 13 14 17 15 17 22 19 17 11 13 13
25 21 20 22 16 9 15 15 17 16 15 11 12 11 10 8 9 11 11 9 10 9 11 10 11 12 14 13 11 10 8 13 10 11 13 16 16 5 8 13 15 13 13
23 17 15 15 17 16 16 21 18 18 16 16 13 13 14 15 14 11 11 9 9 10 11 11 11 14 12 13 13 13 14 16 15 15 18 17 17 21 21 19 19 20 21
18 17 15 17 19 16 13 17 18 19 18 18 15 17 19 19 14 13 12 14 12 11 12 11 10 12 13 12 10 11 13 15 17 17 16 17 17 18 21 21 21 23 25
15 16 13 9 10 11 10 8 12 12 13 14 14 15 14 14 12 13 13 15 15 15 13 13 13 14 14 13 16 13 13 13 13 15 17 18 21 19 20 22 22 23 28
18 18 15 13 13 10 10 8 8 8 11 11 14 16 12 12 12 12 11 10 11 12 15 14 15 16 16 16 16 17 17 17 17 17 19 21 21 23 24 25 26 28 29
15 15 14 14 11 9 9 9 9 9 8 8 9 12 9 7 7 8 7 4 4 9 8 9 14 15 15 15 16 17 18 17 15 17 18 20 21 24 22 21 20 18 23
18 18 18 13 14 12 11 12 12 10 6 8 13 15 17 14 11 10 11 11 11 10 12 8 9 10 11 10 10 12 14 16 16 16 18 19 13 12 14 18 22 24 23
11 11 12 14 13 11 11 10 10 9 10 10 15 16 18 15 11 9 10 9 12 14 14 14 15 13 15 17 15 12 14 17 16 15 13 10 15 13 11 11 11 14 19
8 7 8 9 10 10 9 8 8 10 11 11 11 8 9 9 11 11 10 9 10 10 11 13 15 17 17 17 20 20 16 16 16 14 10 12 12 13 15 19 19 20 17
10 9 7 5 5 5 5 5 4 6 9 7 5 5 7 14 14 9 7 9 11 12 12 11 10 11 11 9 8 9 10 11 12 13 13 14 15 18 20 20 19 19 20
7 6 6 5 5 5 8 8 6 4 4 4 7 9 8 9 18 11 11 10 10 12 9 7 4 3 4 5 6 6 7 6 7 7 9 12 12 13 12 13 18 20 23
5 4 5 5 7 9 9 10 14 14 12 12 12 12 11 13 14 10 10 10 9 9 7 5 6 6 6 8 8 5 7 10 13 12 11 10 11 13 14 16 18 18 19
3 4 5 4 0 4 7 10 16 14 12 20 18 18 16 15 16 16 13 9 7 5 2 1 6 3 5 6 7 6 10 12 13 14 13 14 15 14 17 16 14 15 17
10 8 7 8 8 8 9 9 8 6 6 13 17 19 18 15 13 10 7 4 4 8 8 2 1 1 1 0 4 6 8 10 11 14 13 14 14 17 18 18 19 20 22
8 11 11 8 9 9 10 9 10 12 9 5 6 8 9 8 6 5 5 7 6 5 4 3 2 1 2 3 4 5 7 8 11 12 12 12 15 16 19 20 22 24 27
8 8 10 10 9 11 11 10 9 9 6 8 6 4 3 2 2 5 9 7 4 5 3 1 2 1 4 3 6 6 8 9 11 12 11 13 14 15 17 19 21 22 25
11 12 13 9 11 14 10 10 9 9 9 9 6 4 2 5 5 3 2 5 4 3 3 2 4 2 3 4 4 5 5 6 8 9 11 13 16 18 19 21 24 26 27
13 13 14 14 12 12 10 11 11 11 10 10 11 14 12 4 7 8 4 3 4 3 4 5 2 2 3 6 6 5 7 8 11 13 15 17 19 20 21 23 25 27 30
17 17 18 18 16 16 14 14 13 13 12 11 13 12 13 11 9 7 7 4 4 3 3 4 1 1 6 8 9 10 9 11 13 16 20 22 22 23 25 27 29 31 34
20 20 21 18 17 18 18 17 15 15 14 13 12 11 8 8 8 9 8 6 7 5 5 4 3 2 7 8 6 8 8 13 17 22 23 24 25 25 27 29 31 35 36
23 24 23 20 17 19 20 19 19 17 16 15 15 14 11 9 9 9 10 8 8 6 6 6 6 7 6 8 6 8 14 16 20 21 23 25 25 27 28 32 34 36 38
33 25 21 23 21 20 21 19 18 18 18 16 13 14 12 11 10 9 8 8 8 8 7 7 7 6 7 9 10 13 15 20 20 21 22 23 24 26 29 32 36 39 39
27 33 29 21 18 22 24 21 20 19 19 17 16 15 14 13 11 10 9 9 8 7 8 10 9 9 11 9 15 17 18 21 19 20 20 21 25 28 30 33 34 36 38
Wind_Direction
182 212 210 219 235 218 218 258 261 276 207 202 208 215 235 240 239 238 233 229 218 228 231 252 278 278 293 260 273 277 307 336 341 344 330 321 320 325 311 297 322 338 333
217 216 218 220 204 242 218 206 233 254 281 269 247 223 217 228 232 243 249 227 251 260 265 264 269 282 280 293 287 301 300 314 326 329 318 310 300 301 292 300 307 321 335
234 245 238 194 211 215 230 236 234 229 255 246 265 253 245 240 239 245 252 250 238 256 268 265 268 280 279 271 261 273 275 278 283 294 298 310 314 313 304 302 321 344 348
226 247 253 234 238 249 232 231 217 229 234 243 253 267 249 262 259 254 254 265 238 245 258 260 263 270 278 284 281 284 296 285 288 298 299 311 319 333 330 357 346 329 323
233 236 233 253 245 254 267 241 234 229 227 242 234 237 257 244 249 255 254 257 253 257 256 257 275 276 269 275 278 280 288 286 284 283 287 297 298 317 324 324 312 312 305
219 231 240 247 249 249 275 271 256 251 236 239 248 246 247 257 260 258 249 245 246 259 269 262 258 281 285 284 286 290 299 293 298 297 297 300 306 312 313 313 315 315 317
212 218 222 222 224 242 264 257 246 232 224 230 233 239 250 255 261 260 260 253 261 266 269 272 266 259 267 281 275 284 294 298 300 308 311 309 307 318 315 316 316 312 312
206 205 210 215 229 233 244 248 239 223 211 210 232 244 243 249 248 255 265 261 268 260 263 277 276 273 273 280 284 279 285 290 290 299 300 302 303 304 301 303 306 309 312
204 210 211 201 216 212 236 226 230 218 198 203 247 249 254 257 257 251 247 249 251 259 269 269 277 282 282 282 283 286 288 286 279 274 281 290 298 304 307 307 315 312 308
205 201 192 201 209 211 228 234 228 213 217 229 237 258 268 267 264 261 250 236 245 269 275 265 279 281 289 294 297 305 307 309 308 292 288 298 313 338 337 320 314 304 301
182 188 194 201 204 212 210 219 226 224 204 240 252 257 271 267 258 252 260 255 254 255 260 273 278 282 288 296 294 302 309 306 306 310 316 347 342 317 328 324 338 334 325
165 174 194 198 205 207 218 227 226 217 215 208 233 274 302 282 264 259 265 274 273 269 267 265 272 277 287 291 292 291 297 297 299 300 291 284 285 285 276 288 293 298 302
147 151 159 164 175 187 203 204 206 217 229 223 274 225 202 275 284 292 286 281 273 274 276 282 282 289 293 304 332 342 334 326 315 308 303 301 300 296 293 294 296 297 287
163 173 180 181 193 198 192 203 169 251 240 240 230 230 228 268 279 292 288 283 283 283 287 283 282 305 32 12 32 5 345 316 327 305 297 297 298 304 307 308 300 299 301
168 181 198 205 212 206 203 202 206 212 218 221 208 207 200 235 266 282 297 293 290 284 280 255 233 222 205 213 213 223 241 266 277 289 291 300 305 305 309 307 317 324 322
162 158 137 163 351 218 248 251 240 241 243 233 231 235 243 256 266 277 286 285 272 248 210 32 277 281 266 270 278 262 263 284 296 299 305 310 311 310 305 311 314 317 323
179 191 220 197 219 231 223 260 264 270 292 257 247 250 259 262 266 268 261 240 182 139 105 133 122 49 217 222 339 319 311 318 319 321 333 331 322 313 314 308 306 307 300
219 217 209 222 212 220 235 233 241 266 303 290 316 284 262 256 249 215 164 123 101 115 115 196 152 297 278 291 292 309 320 337 329 340 345 330 326 330 334 332 328 322 318
235 214 246 203 226 225 227 229 231 230 239 265 304 318 271 225 172 170 154 123 145 182 170 206 194 181 278 301 320 334 354 346 343 338 331 322 325 320 321 320 317 319 319
229 210 224 207 224 239 223 224 225 220 217 225 270 258 246 133 97 84 204 179 161 188 193 185 249 255 296 302 314 330 340 323 324 323 316 318 319 324 321 320 320 318 317
227 237 230 212 218 239 216 225 218 220 219 219 219 225 249 231 154 214 199 256 185 192 232 227 256 330 315 308 319 335 329 331 319 317 322 324 325 327 327 327 325 324 322
219 233 240 225 207 227 216 222 221 220 217 214 233 238 259 237 186 220 222 227 245 260 249 274 251 305 290 299 323 329 332 329 318 323 325 327 330 331 330 330 328 327 326
224 228 229 240 216 221 225 216 220 221 217 216 220 230 266 190 181 214 218 217 237 233 248 268 269 269 287 305 329 324 318 300 320 319 324 328 329 331 332 329 327 325 324
229 235 233 226 228 224 230 228 217 218 219 219 217 220 220 213 213 217 220 225 235 242 249 265 267 279 286 294 299 305 295 310 316 318 322 324 328 331 331 331 329 327 327
237 227 243 236 225 227 231 229 230 226 224 217 216 218 219 217 218 219 228 230 245 255 266 277 274 276 277 276 296 280 304 313 318 318 321 329 332 334 334 332 332 332 331
249 235 230 227 231 226 234 230 229 230 226 223 223 218 219 216 219 223 229 233 238 250 255 259 275 266 273 280 276 290 304 314 316 318 325 333 336 338 340 339 340 337 335
Height
1569 1570 1573 1580 1584 1584 1584 1586 1590 1590 1592 1593 1593 1594 1594 1594 1595 1597 1599 1600 1603 1604 1604 1603 1600 1599 1601 1603 1605 1606 1606 1606 1606 1603 1602 1603 1603 1601 1603 1603 1599 1594 1588
1566 1567 1572 1578 1579 1588 1584 1586 1588 1591 1591 1590 1590 1590 1593 1594 1594 1594 1594 1597 1599 1601 1602 1601 1600 1599 1599 1600 1601 1603 1602 1603 1603 1602 1604 1603 1603 1602 1600 1597 1595 1591 1587
1563 1565 1569 1575 1581 1583 1581 1585 1582 1591 1591 1589 1589 1592 1595 1595 1594 1592 1591 1592 1594 1597 1598 1599 1600 1601 1600 1600 1601 1601 1601 1601 1601 1604 1604 1603 1600 1598 1597 1596 1592 1588 1584
1560 1563 1564 1566 1569 1574 1580 1583 1586 1589 1590 1588 1589 1591 1592 1593 1592 1591 1590 1590 1592 1593 1594 1596 1597 1597 1597 1597 1597 1598 1599 1598 1599 1600 1600 1600 1599 1596 1592 1589 1585 1584 1581
1559 1562 1563 1565 1567 1570 1575 1579 1581 1584 1584 1585 1586 1588 1588 1587 1588 1588 1589 1588 1590 1592 1592 1592 1594 1594 1594 1594 1594 1595 1596 1596 1597 1596 1595 1593 1591 1589 1586 1584 1582 1581 1580
1557 1561 1563 1564 1565 1568 1570 1573 1574 1576 1577 1580 1582 1584 1584 1584 1586 1587 1588 1590 1590 1589 1588 1588 1590 1590 1591 1592 1592 1593 1593 1593 1592 1592 1590 1589 1588 1587 1585 1583 1581 1578 1575
1555 1559 1561 1564 1564 1566 1568 1570 1570 1572 1574 1578 1577 1580 1581 1582 1584 1584 1585 1586 1587 1588 1587 1587 1588 1587 1587 1587 1588 1590 1590 1590 1588 1587 1585 1585 1583 1583 1582 1580 1579 1577 1574
1553 1557 1559 1563 1563 1565 1567 1569 1570 1573 1574 1576 1577 1577 1577 1579 1580 1581 1582 1583 1583 1584 1582 1583 1583 1584 1585 1585 1586 1587 1587 1587 1587 1586 1584 1583 1582 1581 1580 1579 1576 1572 1570
1552 1555 1558 1561 1562 1564 1567 1568 1569 1572 1573 1574 1574 1575 1576 1578 1579 1580 1580 1580 1580 1580 1581 1581 1581 1581 1581 1582 1582 1583 1582 1582 1582 1581 1581 1580 1579 1578 1577 1574 1571 1569 1566
1550 1553 1555 1558 1561 1563 1566 1566 1567 1570 1571 1573 1573 1573 1574 1575 1576 1577 1578 1579 1579 1578 1578 1579 1579 1580 1580 1580 1579 1579 1579 1578 1577 1577 1576 1576 1575 1574 1573 1571 1568 1567 1565
1550 1552 1555 1557 1560 1563 1565 1566 1567 1569 1569 1571 1573 1573 1572 1573 1574 1574 1575 1575 1576 1577 1577 1576 1576 1577 1577 1577 1577 1576 1575 1575 1574 1573 1572 1571 1571 1571 1570 1566 1565 1565 1563
1551 1554 1556 1557 1560 1561 1563 1565 1566 1567 1570 1569 1572 1572 1569 1571 1570 1571 1572 1573 1573 1573 1574 1575 1574 1573 1574 1573 1573 1573 1572 1572 1571 1568 1568 1568 1567 1565 1563 1562 1561 1561 1560
1552 1554 1556 1557 1560 1561 1564 1564 1566 1567 1568 1568 1571 1572 1570 1567 1568 1570 1570 1570 1571 1571 1572 1572 1571 1571 1571 1571 1571 1570 1569 1568 1567 1567 1565 1565 1564 1562 1561 1559 1557 1555 1553
1553 1554 1556 1557 1559 1560 1561 1563 1563 1566 1567 1567 1570 1571 1570 1568 1566 1567 1567 1568 1568 1569 1570 1570 1569 1568 1570 1569 1570 1571 1570 1567 1565 1562 1562 1561 1559 1558 1558 1556 1552 1550 1549
1552 1553 1555 1556 1557 1559 1560 1560 1561 1564 1565 1567 1567 1566 1566 1565 1565 1566 1567 1566 1566 1567 1567 1568 1566 1565 1566 1566 1565 1566 1564 1563 1561 1561 1559 1558 1556 1554 1554 1552 1551 1548 1546
1553 1554 1556 1557 1558 1558 1559 1560 1559 1560 1562 1564 1565 1563 1563 1563 1563 1563 1564 1564 1564 1565 1565 1565 1564 1563 1563 1564 1563 1563 1562 1562 1560 1559 1556 1555 1554 1551 1548 1547 1546 1544 1542
1551 1554 1555 1555 1558 1558 1560 1558 1558 1559 1559 1560 1560 1559 1559 1560 1560 1561 1562 1562 1562 1563 1564 1566 1565 1564 1563 1562 1561 1559 1559 1559 1558 1555 1553 1552 1552 1548 1546 1544 1541 1540 1537
1549 1550 1552 1554 1554 1556 1557 1557 1558 1555 1556 1555 1555 1555 1555 1557 1557 1558 1560 1561 1563 1564 1565 1564 1564 1563 1562 1560 1559 1558 1557 1558 1555 1551 1551 1551 1549 1546 1543 1541 1538 1537 1532
1546 1547 1548 1549 1551 1552 1553 1553 1555 1555 1555 1551 1553 1553 1554 1555 1556 1557 1559 1560 1562 1564 1564 1563 1562 1560 1559 1558 1557 1555 1555 1554 1553 1552 1551 1549 1547 1543 1540 1537 1535 1533 1529
1542 1544 1545 1546 1547 1547 1549 1550 1551 1552 1553 1553 1552 1550 1552 1554 1556 1558 1559 1560 1561 1561 1561 1561 1560 1558 1558 1556 1554 1553 1554 1553 1552 1551 1549 1545 1541 1539 1536 1533 1531 1528 1526
1540 1540 1540 1542 1544 1544 1545 1547 1548 1549 1550 1551 1551 1551 1552 1553 1554 1557 1558 1558 1559 1559 1558 1557 1557 1557 1556 1554 1552 1550 1549 1549 1548 1545 1543 1540 1537 1535 1533 1530 1528 1525 1521
1535 1537 1536 1537 1538 1540 1542 1544 1544 1546 1547 1549 1546 1548 1550 1551 1552 1555 1555 1556 1557 1556 1556 1555 1555 1554 1553 1550 1549 1547 1547 1547 1544 1542 1539 1537 1534 1532 1529 1526 1522 1519 1514
1528 1531 1531 1532 1534 1537 1538 1539 1541 1542 1544 1545 1546 1544 1546 1547 1549 1551 1552 1553 1554 1554 1554 1553 1552 1551 1549 1548 1547 1547 1546 1543 1541 1538 1536 1533 1531 1528 1525 1521 1517 1513 1509
1523 1526 1527 1526 1529 1532 1535 1535 1536 1538 1539 1541 1542 1543 1545 1546 1547 1548 1549 1550 1551 1551 1550 1549 1548 1547 1547 1546 1545 1544 1542 1541 1538 1535 1532 1529 1526 1523 1519 1515 1512 1507 1501
1515 1519 1522 1523 1524 1526 1530 1532 1533 1534 1535 1536 1538 1540 1541 1542 1543 1544 1545 1546 1547 1547 1547 1547 1546 1546 1545 1543 1542 1540 1539 1537 1534 1531 1527 1525 1522 1518 1515 1510 1505 1499 1494
1508 1510 1513 1516 1519 1521 1525 1526 1528 1530 1531 1532 1534 1535 1537 1538 1539 1541 1542 1542 1543 1544 1545 1544 1543 1542 1541 1539 1536 1536 1534 1532 1529 1526 1524 1520 1517 1513 1509 1504 1499 1494 1488